Location: Clifton Park
(41.4873°N, 81.8024°W)
Time: 22:04:05
(UTC+00:00)

Shenzhou-11 Module - Pass Details

Date: 21 January 2020
Orbit: 297 x 310 km, 42.8° (Epoch: 27 February)

Event Time Altitude Azimuth Distance (km) Brightness Sun altitude
Rises 00:07:12 0° 234° (SW) 2,021 6.9 -18.4°
Reaches altitude 10° 00:09:16 10° 225° (SW) 1,191 5.3 -18.8°
Enters shadow 00:11:02 29° 192° (SSW) 604 3.2 -19.1°
